Location: Lussas
(44.6119°N, 4.4726°E)
Time: 05:15:49
(UTC+00:00)

Meteor 1-4 Rocket - Pass Details

Date: 26 November 2020
Orbit: 449 x 500 km, 81.2° (Epoch: 18 January)

Event Time Altitude Azimuth Distance (km) Brightness Sun altitude
Exits shadow 06:08:05 11° 299° (WNW) 1,551 4.4 -8.1°
Maximum altitude 06:09:37 13° 272° (W) 1,390 4.3 -7.8°
Drops below altitude 10° 06:11:20 10° 242° (WSW) 1,577 4.8 -7.6°
Sets 06:14:14 0° 214° (SW) 2,443 6.0 -7.1°
